This is the latest recevied weather packets stored in our database for station/object W5LND-10. If no packets are shown the sender has not sent any weather packets the latest 10 day(s).
| Time | Temp. | Humidity | Pressure | Rain* | Wind** | Luminosity | Snow |
|---|---|---|---|---|---|---|---|
| 1777491987 | 20.56° C | 53% | 1009.8 hPa | 0 mm | - | 638 W/m² | - |
| 1777491687 | 20° C | 53% | 1010 hPa | 0 mm | - | 468 W/m² | - |
| 1777491387 | 20° C | 55% | 1010 hPa | 0 mm | - | 970 W/m² | - |
| 1777491087 | 19.44° C | 55% | 1010 hPa | 0 mm | - | 937 W/m² | - |
| 1777490787 | 19.44° C | 56% | 1010.1 hPa | 0 mm | - | 557 W/m² | - |
| 1777490487 | 19.44° C | 55% | 1010.1 hPa | 0 mm | - | 517 W/m² | - |
| 1777490187 | 20° C | 54% | 1010.2 hPa | 0 mm | - | 327 W/m² | - |
| 1777489887 | 20° C | 55% | 1010.3 hPa | 0 mm | - | 570 W/m² | - |
| 1777489587 | 20° C | 55% | 1010.4 hPa | 0 mm | - | 536 W/m² | - |
| 1777489287 | 19.44° C | 57% | 1010.4 hPa | 0 mm | - | 540 W/m² | - |
| 1777488987 | 18.89° C | 57% | 1010.6 hPa | 0 mm | - | 438 W/m² | - |
| 1777488687 | 18.89° C | 58% | 1010.6 hPa | 0 mm | - | 617 W/m² | - |
| 1777488387 | 18.89° C | 57% | 1010.7 hPa | 0 mm | - | 406 W/m² | - |
| 1777488087 | 18.33° C | 58% | 1010.6 hPa | 0 mm | - | 385 W/m² | - |
| 1777487787 | 18.33° C | 58% | 1010.7 hPa | 0 mm | - | 489 W/m² | - |
| 1777487487 | 18.33° C | 58% | 1010.7 hPa | 0 mm | - | 541 W/m² | - |
| 1777487187 | 18.33° C | 59% | 1011 hPa | 0 mm | - | 385 W/m² | - |
| 1777486887 | 17.78° C | 60% | 1011 hPa | 0 mm | - | 334 W/m² | - |
| 1777486587 | 17.78° C | 60% | 1011.3 hPa | 0 mm | - | 274 W/m² | - |
| 1777486287 | 17.78° C | 61% | 1011.2 hPa | 0 mm | - | 265 W/m² | - |
| 1777485987 | 17.22° C | 60% | 1011.2 hPa | 0 mm | - | 236 W/m² | - |
| 1777485687 | 17.78° C | 60% | 1011.2 hPa | 0 mm | - | 229 W/m² | - |
| 1777485387 | 17.78° C | 60% | 1011.1 hPa | 0 mm | - | 250 W/m² | - |
| 1777485087 | 17.78° C | 60% | 1011 hPa | 0 mm | - | 304 W/m² | - |
| 1777484787 | 17.78° C | 60% | 1011.1 hPa | 0 mm | - | 330 W/m² | - |
* Rain latest hour (hover to see other rain measurements)
** Current wind speed in m/s (hover to see current wind gust speed)